Погода в Максимове

Россия / Владимирская область     55°29′45″N   41°24′59″E
В апреле 2022 года жителям России запретили посещать сайт meteo.paraplan.net по решению Генеральной прокуратуры. Аудитория сайта уменьшилась в 10 раз. Владельцы сайта не видят смысла в поддержке погодного сервера в таких условиях. Сайт будет закрыт в октябре.
темп.,
°C
ветер,
м/с
пор.,
м/с
влажн.,
%
обл.,
%
осадки,
мм/ч
давл.,
гПа
погр.,
м
3 октября, пн
пн300:00+13вюв41194100 0.4 1003282
03:00+14юв31096100 1.0 1002334
06:00+14вюв51492100 0.1 1001581
09:00+16юв71478100 0.1 1000883
12:00+17юв81666100 0.1 10001125
15:00+14ю71582100 0.8 10021242
18:00+11ю7137232 0.1 10071177
21:00+10ю6137799 0.1 10091103
4 октября, вт
вт400:00+10ююв513796 0.0 1011763
03:00+9ююв614835 0.0 1011650
06:00+9ююв514835 0.0 1012588
09:00+11ююв614695 0.0 1013883
12:00+15ю715568 0.0 10141774
15:00+15ююв6135999 0.1 10141869
18:00+11ю51284100 1.5 1014896
21:00+12ююв5128457 2.1 1013958
5 октября, ср
ср500:00+10ю41092100 3.4 1013519
03:00+10ю41187100 3.8 1013856
06:00+9ю5128299 0.2 10131183
09:00+9ю51087100 0.8 10131309
12:00+8ю51088100 0.9 10131276
15:00+8юз698798 1.4 10131169
18:00+7юз4885100 0.3 1015725
21:00+6юз598499 0.4 1015728
6 октября, чт
чт600:00+4юз389493 0.0 1015389
03:00+5з379161 0.3 1016596
06:00+5зюз3791100 0.1 1016422
09:00+6зюз3790100 0.1 1017396
12:00+8з3572100 0.1 1017516
15:00+10зюз356097 0.1 10161230
18:00+7юз2688100 0.1 1016287
21:00+7ю3896100 0.2 1014344
7 октября, пт
пт700:00+9зюз41198100 0.8 1013554
03:00+10зюз51196100 0.8 1013567
06:00+11зсз51084100 0.1 1014868
09:00+10зсз51083100 0.1 1015944
12:00+10з51080100 0.1 10171164
15:00+10зюз6127878 0.1 1017911
18:00+9з6138213 0.0 1018831
21:00+9з514860 0.0 1019682